Regional Weather Roundup
Issued by NWS

Home | Current Version | Previous Version | Text Only | Print | Product List | Glossary On
Versions: 1 2 3 4 5 6 7 8 9 10 11 12 13 14 15 16 17 18 19 20 21 22 23 24 25 26 27 28 29 30 31 32 33 34 35 36 37 38 39 40 41 42 43 44 45 46 47 48 49 50
000
ASUS43 KTOP 300559
RWRKS

WEATHER ROUNDUP FOR KANSAS
NATIONAL WEATHER SERVICE GOODLAND KS
100 AM CDT SUN AUG 30 2015

NOTE:  "FAIR" INDICATES FEW OR NO CLOUDS BELOW 12,000 FEET WITH NO
SIGNIFICANT WEATHER AND/OR OBSTRUCTIONS TO VISIBILITY.

KSZ001>006-013>018-027>032-041>047-300700-
NORTHWEST KANSAS

CITY           SKY/WX    TMP DP  RH WIND       PRES   REMARKS
GOODLAND       CLEAR     64  48  56 S12       30.12F
6HR MIN TEMP:  62; 6HR MAX TEMP:  87;

HAYS           FAIR      61  54  77 CALM      30.07S
HILL CITY      FAIR      64  57  78 SE3       30.08S
6HR MIN TEMP:  59; 6HR MAX TEMP:  86;

RUSSELL        FAIR      60  59  96 SE7       30.05F
6HR MIN TEMP:  60; 6HR MAX TEMP:  80;

$$

KSZ061>065-074>080-084>089-300700-
SOUTHWEST KANSAS

CITY           SKY/WX    TMP DP  RH WIND       PRES   REMARKS
DODGE CITY     FAIR      60  54  80 SE6       30.09S
6HR MIN TEMP:  58; 6HR MAX TEMP:  81;

ELKHART          N/A     66  50  56 S9          N/A
GARDEN CITY    FAIR      65  56  72 S5        30.09F
6HR MIN TEMP:  65; 6HR MAX TEMP:  84;

GREAT BEND     FAIR      61  55  82 CALM      30.07S
LIBERAL        FAIR      63  50  63 CALM      30.11S
$$

KSZ066>073-081>083-090>101-300700-
SOUTHEAST KANSAS

CITY           SKY/WX    TMP DP  RH WIND       PRES   REMARKS
CHANUTE        FAIR      68  66  93 NE6       30.03S
6HR MIN TEMP:  67; 6HR MAX TEMP:  80;

COFFEYVILLE    FAIR      67  65  93 N3        30.01S
6HR MIN TEMP:  67; 6HR MAX TEMP:  80;

HUTCHINSON     FAIR      58  56  93 CALM      30.06S FOG
6HR MIN TEMP:  57; 6HR MAX TEMP:  75;

NEWTON         FAIR      63  55  77 NE3       30.08R
PARSONS        FAIR      67  66  97 CALM      30.03S
6HR MIN TEMP:  66; 6HR MAX TEMP:  79;

WICHITA INTL   FAIR      66  60  81 NE5       30.04S
6HR MIN TEMP:  65; 6HR MAX TEMP:  73;

WICHITA JABRA  FAIR      61  59  93 NE5       30.05R
6HR MIN TEMP:  61; 6HR MAX TEMP:  71;

$$

KSZ007>012-019>026-033>040-048>060-102>105-300700-
NORTHEAST KANSAS

CITY           SKY/WX    TMP DP  RH WIND       PRES   REMARKS
CONCORDIA      FAIR      59  58  96 S5        30.06F
6HR MIN TEMP:  57; 6HR MAX TEMP:  73;

EMPORIA        FAIR      63  62  97 NE6       30.04F FOG
6HR MIN TEMP:  62; 6HR MAX TEMP:  72;

LAWRENCE       CLOUDY    67  65  93 CALM      30.05S
6HR MIN TEMP:  64; 6HR MAX TEMP:  74;

MANHATTAN      FAIR      62  61  96 N3        30.06R
6HR MIN TEMP:  62; 6HR MAX TEMP:  71;

OLATHE IND     FAIR      67  66  97 NW3       30.05S
6HR MIN TEMP:  67; 6HR MAX TEMP:  74;

OLATHE EXE     FAIR      68  66  93 N5        30.03S
6HR MIN TEMP:  68; 6HR MAX TEMP:  75;

SALINA         FAIR      63  59  87 CALM      30.06S
6HR MIN TEMP:  62; 6HR MAX TEMP:  74;

TOPEKA BILLARD FAIR      64  63  96 CALM      30.05F
6HR MIN TEMP:  64; 6HR MAX TEMP:  74;

TOPEKA FORBES  FAIR      67  63  87 NE5       30.05F
6HR MIN TEMP:  67; 6HR MAX TEMP:  75;

$$


USA.gov is the U.S. government's official web portal to all federal, state and local government web resources and services.